Location: Champseau
(45.8333°N, 1.7667°E)
Time: 18:04:22
(UTC+00:00)

SPOT 5 - Pass Details

Date: 18 April 2021
Orbit: 624 x 814 km, 98.2° (Epoch: 12 May)

Event Time Altitude Azimuth Distance (km) Brightness Sun altitude
Exits shadow 21:19:31 67° 89° (E) 730 2.6 -23.5°
Maximum altitude 21:19:41 68° 73° (ENE) 727 2.7 -23.5°
Drops below altitude 10° 21:24:22 10° 351° (N) 2,169 6.1 -24.1°
Sets 21:26:42 0° 349° (N) 3,123 7.1 -24.3°
